SCP
0 0 0 0 0 0 0 0 0 0 0 0 0 0 0 0 0 0 0 0 0 0 0 0 0 0 0 0 0 0 0 0 0 0 0 0 0 0 0 0 0 0 0 0
0 0 0 0 0 0 0 0 0 0 0 0 0 0 0 0 0 0 0 0 0 0 0 0 0 0 0 0 0 0 0 0 0 0 0 0 0 0 0 0 0 0 0 0
0 0 0 0 0 0 0 0 0 0 0 0 0 0 0 0 0 0 0 0 0 0 0 0 0 0 0 0 0 0 0 0 0 0 0 0 0 0 0 0 0 0 0 0
0 0 0 0 0 0 0 0 0 0 0 0 0 0 0 0 0 0 0 0 0 0 0 0 0 0 0 0 0 0 0 0 0 0 0 0 0 0 0 0 0 0 0 0
0 0 0 0 0 0 0 0 0 0 0 0 0 0 0 0 0 0 0 0 0 0 0 0 0 0 0 0 0 0 0 0 0 0 0 0 0 0 0 0 0 0 0 0
0 0 0 0 0 0 0 0 0 0 0 0 0 0 0 0 0 0 0 0 0 0 0 0 0 0 0 0 0 0 0 0 0 0 0 0 0 0 0 0 0 0 0 0
0 0 0 0 0 0 0 0 0 0 0 0 0 0 0 0 0 0 0 0 0 0 0 0 0 0 0 0 0 0 0 0 0 0 0 0 0 0 0 0 0 0 0 0
0 0 0 0 0 0 0 0 0 0 0 0 0 0 0 0 0 0 0 0 0 0 0 0 0 0 0 0 0 0 0 0 0 0 0 0 0 0 0 0 0 0 0 0
0 0 0 0 0 0 0 0 0 0 0 0 0 0 0 0 0 0 0 0 0 0 0 0 0 0 0 0 0 0 0 0 0 0 0 0 0 0 0 0 0 0 0 0
0 0 0 0 0 0 0 0 0 0 0 0 0 0 0 0 0 0 0 0 0 0 0 0 0 0 0 0 0 0 0 0 0 0 0 0 0 0 0 0 0 0 0 0
0 0 0 0 0 0 0 0 0 0 0 0 0 0 -0 0 0 0 0 0 0 0 0 0 0 0 0 0 0 0 0 0 0 0 0 0 0 0 0 0 0 0 0 0
0 0 0 0 0 0 0 0 0 0 0 0 0 0 0 0 0 0 0 0 0 0 0 0 0 0 0 0 0 0 0 0 0 0 0 0 0 0 0 0 0 0 0 0
0 0 0 0 0 0 0 0 0 0 0 0 0 0 0 0 0 0 0 0 0 0 0 0 0 0 0 0 0 0 0 0 0 0 0 0 0 0 0 0 0 0 0 0
0 0 0 0 0 0 0 0 0 0 0 0 0 0 0 0 0 0 0 0 0 0 0 0 0 0 0 0 0 0 0 0 0 0 0 0 0 0 0 0 0 0 0 0
0 0 0 0 0 0 0 0 0 0 0 0 0 0 0 0 0 0 0 0 0 0 0 0 0 0 0 0 0 0 0 0 0 0 0 0 0 0 0 0 0 0 0 0
0 0 0 0 0 0 0 0 0 0 0 0 0 -0 0 0 0 0 0 0 0 0 0 0 0 0 0 0 0 0 0 0 0 0 0 0 0 0 0 0 0 0 0 0
0 0 0 0 0 0 0 0 0 0 0 0 0 0 0 0 0 0 0 0 0 0 0 0 0 0 0 0 0 0 0 0 0 0 0 0 0 0 0 0 0 0 0 0
0 0 0 0 0 0 0 0 0 0 0 0 0 0 0 0 0 0 0 0 0 0 0 0 0 0 0 0 0 0 0 0 0 0 0 0 0 0 0 0 0 0 0 0
0 0 0 0 0 0 0 0 0 0 0 0 0 0 0 0 0 0 0 0 0 0 0 0 0 0 0 0 0 0 0 0 0 0 0 0 0 0 0 0 0 0 0 0
0 0 0 0 0 0 0 0 0 0 0 0 0 0 0 0 0 0 0 0 0 0 0 0 0 0 0 0 0 0 0 0 0 0 0 0 0 0 0 0 0 0 0 0
0 0 0 0 0 0 0 0 0 0 0 0 0 0 0 0 0 0 0 0 0 0 0 0 0 0 0 0 0 0 0 0 0 0 0 0 0 0 0 0 0 0 0 0
0 0 0 0 0 0 0 0 0 0 0 0 0 0 0 0 0 0 0 0 0 0 0 0 0 0 0 0 0 0 0 0 0 0 0 0 0 0 0 0 0 0 0 0
0 0 0 0 0 0 0 0 0 0 0 0 0 0 0 0 0 0 0 0 0 0 0 0 0 0 0 0 0 0 0 0 0 0 0 0 0 0 0 0 0 0 0 0
0 0 0 0 0 0 0 0 0 0 0 0 0 0 0 0 0 0 0 0 0 0 0 0 0 0 0 0 0 0 0 0 0 0 0 0 0 0 0 0 0 0 0 0
0 0 0 0 0 0 0 0 0 0 0 0 0 0 0 0 0 0 0 0 0 0 0 0 0 0 0 0 0 0 0 0 0 0 0 0 0 0 0 0 0 0 0 0
0 0 0 0 0 0 0 0 0 0 0 0 0 0 0 0 0 0 0 0 0 0 0 0 0 0 0 0 0 0 0 0 0 0 0 0 0 0 0 0 0 0 0 0
Wind_Speed_500mb
12 8 11 12 13 14 13 14 12 5 3 5 13 14 18 20 21 40 49 49 52 60 53 53 54 53 52 55 57 58 58 54 53 57 57 62 61 59 57 53 49 47 43 40
9 14 18 12 9 8 9 10 8 3 1 7 3 20 19 12 24 50 58 50 56 58 58 58 59 58 57 59 58 54 52 51 51 54 54 52 58 64 61 58 56 54 51 47
15 14 20 13 9 12 7 11 10 9 4 3 8 15 10 15 38 50 49 56 59 62 59 54 52 58 57 59 62 59 52 49 49 51 47 51 52 52 56 58 59 59 56 54
9 8 22 12 11 12 10 10 8 10 10 8 2 10 11 9 19 16 65 79 75 68 60 53 53 54 57 52 54 61 59 56 53 56 54 53 56 57 49 40 41 41 51 54
16 17 14 10 13 15 17 9 14 8 6 3 3 2 14 3 14 20 47 73 82 81 62 54 49 52 54 54 52 57 62 65 66 65 64 60 59 56 44 36 34 37 43 48
12 8 14 23 7 18 17 14 14 9 6 6 13 11 11 10 19 9 17 41 57 64 60 52 52 54 55 56 57 58 59 61 64 65 69 70 66 61 52 42 43 40 38 37
5 5 3 11 12 6 6 13 4 2 3 10 4 3 18 15 16 13 17 14 17 34 51 55 55 56 57 55 54 56 58 60 63 64 64 64 60 55 51 44 38 41 37 36
18 11 16 9 12 15 11 19 11 12 7 8 3 14 13 13 25 49 48 38 20 28 44 51 54 53 52 52 56 58 57 56 56 58 64 64 54 47 45 40 45 39 37 36
13 8 4 3 8 18 12 11 14 14 5 5 9 12 21 9 20 16 20 27 29 38 49 50 48 47 47 50 49 44 39 33 30 33 41 46 45 48 44 47 45 45 37 34
13 10 2 4 8 6 15 20 7 4 7 8 10 10 12 8 16 13 18 34 31 36 41 42 41 40 41 38 34 32 31 28 23 22 27 35 40 42 42 41 41 40 33 33
11 9 3 4 12 17 8 8 7 10 9 9 2 12 16 24 14 21 31 32 36 41 40 39 38 37 37 36 34 33 31 27 25 26 28 30 34 38 39 40 41 34 31 30
2 10 9 9 4 3 1 13 12 10 12 5 5 16 7 16 13 21 23 34 33 39 40 40 39 39 38 38 36 33 30 29 31 30 31 33 33 33 34 34 31 26 24 23
14 1 7 8 6 3 7 5 8 11 6 14 9 10 9 10 11 8 17 19 28 36 42 44 46 45 43 41 39 35 32 34 35 36 36 35 34 31 30 28 23 22 21 18
20 6 15 22 14 18 11 14 11 11 4 12 29 7 3 6 10 7 4 10 20 37 46 49 49 47 43 41 40 41 44 42 38 37 37 35 34 33 29 26 25 23 21 18
13 13 8 1 10 16 11 15 24 27 58 19 43 29 18 14 13 17 11 14 21 34 46 50 50 48 48 50 51 51 49 46 45 44 42 39 37 34 32 31 28 26 24 20
5 5 8 2 5 6 9 24 41 55 30 50 23 44 13 31 43 22 25 29 38 42 45 49 51 52 57 58 58 56 54 55 52 49 44 41 40 38 37 34 32 30 27 23
20 12 6 15 3 13 12 47 34 33 38 41 37 48 16 12 22 50 56 49 48 42 39 45 51 57 61 64 63 64 62 59 57 52 49 46 45 43 42 41 39 35 30 23
16 18 5 6 7 14 22 15 31 38 32 47 51 20 22 31 47 50 52 58 60 59 61 60 62 66 66 65 65 64 64 64 60 56 54 52 50 49 48 45 40 36 29 23
12 11 6 11 8 13 20 11 12 18 48 32 42 33 28 34 38 65 54 64 72 67 63 63 62 64 65 66 69 69 68 67 64 64 61 57 55 53 50 47 41 35 30 26
7 22 13 5 12 22 5 19 37 14 42 22 42 35 42 33 19 29 46 43 47 53 58 62 66 67 64 64 69 73 74 75 74 71 65 60 57 53 50 45 40 35 31 27
9 6 25 15 12 19 14 11 38 26 13 23 33 47 27 17 38 14 16 32 32 31 42 49 55 61 61 64 69 80 82 83 80 72 68 65 62 59 53 47 43 38 34 32
20 21 15 9 15 32 16 12 22 14 12 9 10 11 23 36 39 45 46 47 50 48 48 49 53 56 59 60 66 79 86 83 77 74 72 70 68 62 56 51 48 44 39 34
15 16 17 24 15 2 31 6 7 5 9 11 7 5 6 8 9 13 17 22 27 28 29 33 40 44 49 53 60 74 83 80 77 77 75 72 68 62 58 53 49 44 38 33
5 4 8 8 2 2 18 6 5 4 6 8 8 8 9 9 12 13 10 13 17 19 22 25 28 36 42 47 55 69 76 77 78 78 77 74 71 66 59 53 47 41 37 27
4 13 12 1 5 11 7 6 5 4 3 1 1 3 4 9 11 10 9 9 10 14 17 22 24 29 35 41 50 59 69 74 77 79 79 77 72 65 61 55 46 39 31 29
8 8 8 6 10 11 10 13 13 14 13 12 9 7 8 11 13 13 16 16 15 14 16 20 26 29 31 38 45 56 67 74 78 81 80 76 71 67 62 54 45 38 32 47
Wind_Direction_500mb
167 129 188 180 177 177 174 174 197 237 187 149 220 251 261 238 221 229 226 223 226 233 239 239 234 230 228 227 228 228 228 228 227 230 229 229 231 237 240 242 242 244 248 252
77 199 209 175 135 131 151 163 193 293 267 157 239 261 251 230 234 226 227 227 229 236 238 240 238 232 231 231 229 227 231 231 230 232 237 238 232 235 238 243 247 248 251 250
162 202 151 162 166 161 172 176 187 205 128 17 353 290 247 245 238 240 240 238 236 237 239 237 235 230 232 232 229 229 231 235 236 240 241 240 242 238 238 241 244 247 250 253
172 191 159 154 193 143 203 205 147 137 124 211 107 275 269 247 252 221 238 237 236 234 236 236 233 232 233 235 232 231 233 236 238 240 240 239 242 243 246 251 250 251 254 256
210 155 140 163 185 156 221 137 143 117 110 113 245 193 266 259 268 235 234 238 236 239 234 230 233 232 232 231 231 233 233 236 235 238 243 244 244 249 257 260 261 256 257 255
181 180 155 181 134 161 148 85 50 62 95 266 213 174 264 205 219 265 244 243 244 240 231 227 227 230 225 225 226 230 235 238 241 242 245 246 246 249 250 253 256 262 263 261
107 168 158 130 97 81 118 108 33 325 279 222 22 276 242 244 246 223 246 302 262 226 219 219 223 222 222 224 228 233 237 242 244 245 245 244 245 243 243 243 249 258 261 252
165 200 163 177 171 158 174 157 153 183 216 222 87 232 241 240 261 259 260 269 267 219 207 211 215 217 220 225 233 240 247 251 250 247 246 244 240 232 232 228 238 247 255 250
149 199 69 142 142 155 188 194 153 108 23 55 219 286 297 239 267 262 243 226 219 203 201 203 207 217 229 236 242 246 248 246 236 229 230 233 224 218 224 231 237 243 247 244
193 122 57 162 125 66 184 154 125 20 137 258 273 269 235 273 242 237 236 222 207 194 195 201 211 220 227 232 234 233 229 226 223 217 213 215 212 215 216 221 232 248 237 241
136 108 185 139 210 157 146 177 72 126 153 177 264 263 220 225 210 209 229 224 211 201 201 206 213 220 222 222 222 224 225 223 219 213 209 208 208 209 217 228 236 228 224 231
133 112 143 172 280 297 24 163 157 174 208 212 168 253 225 224 254 220 241 229 218 213 210 213 217 217 219 221 222 222 221 219 213 206 202 202 206 211 220 230 221 217 220 225
177 249 91 46 331 4 201 196 148 100 85 201 165 251 344 307 288 264 239 228 213 211 211 216 218 218 218 219 219 220 218 213 208 202 200 202 206 209 209 207 203 201 200 197
125 137 169 195 202 136 181 185 188 149 177 207 241 187 338 235 265 275 247 217 219 217 218 222 221 222 222 223 223 218 215 210 207 201 198 198 199 200 201 194 188 185 182 182
132 183 175 197 173 167 175 171 178 197 222 192 251 233 205 237 234 245 248 240 231 227 225 227 229 227 225 224 221 218 215 213 209 207 203 201 201 197 193 192 188 188 185 181
176 209 125 224 109 111 183 203 202 215 214 239 254 268 175 225 231 249 248 248 246 242 236 233 232 232 232 229 226 223 220 215 212 210 208 205 202 198 196 193 189 186 181 179
153 133 106 224 77 85 302 222 214 222 219 230 232 249 201 196 208 225 238 241 234 233 238 239 243 243 237 235 229 225 220 216 214 211 209 208 205 201 195 190 188 185 187 191
150 155 107 129 111 189 248 205 215 219 226 227 246 242 190 216 231 241 235 237 240 249 254 256 257 251 246 238 230 225 220 218 215 213 211 208 203 199 194 191 190 191 194 200
160 147 100 150 201 284 268 179 154 175 248 227 241 245 234 241 249 253 242 244 246 248 252 260 262 262 254 244 232 224 220 219 216 214 211 207 204 200 198 196 195 196 202 204
99 202 178 126 189 229 356 209 185 102 265 204 221 232 230 195 233 258 251 255 260 261 261 260 259 259 253 245 233 225 221 219 218 215 210 207 204 202 202 200 199 200 201 207
137 111 193 179 227 275 227 204 154 177 254 213 231 230 202 194 228 217 248 259 263 258 259 261 259 258 256 246 232 222 221 220 219 213 208 205 203 202 202 202 202 204 205 205
167 167 194 179 213 255 168 123 169 212 210 216 214 219 221 242 252 258 264 267 267 266 259 255 256 258 254 244 232 225 221 219 214 209 207 205 203 202 202 203 203 201 202 203
200 193 182 189 211 193 180 358 237 249 262 218 222 254 286 273 260 256 249 253 265 272 269 258 250 253 250 244 234 228 221 216 210 207 206 204 202 202 202 203 203 201 200 207
258 187 158 109 3 145 191 221 207 195 215 205 210 208 215 245 264 264 275 286 286 286 287 282 268 254 245 238 230 226 222 215 211 208 205 205 204 203 202 201 203 204 203 209
197 137 144 83 122 106 110 170 163 142 150 231 256 298 286 287 289 304 319 309 300 303 304 299 283 265 251 241 231 223 217 216 211 208 207 205 203 203 202 201 200 201 214 235
194 163 176 189 126 119 132 98 98 95 74 48 21 328 324 316 315 318 313 303 298 293 297 296 289 275 259 245 234 225 218 215 213 210 208 207 206 203 200 196 200 213 221 228
Wind_Speed_850mb
12 8 11 12 13 14 13 14 12 5 3 5 13 14 18 20 21 40 49 49 52 60 53 53 54 53 52 55 57 58 58 54 53 57 57 62 61 59 57 53 49 47 43 40
9 14 18 12 9 8 9 10 8 3 1 7 3 20 19 12 24 50 58 50 56 58 58 58 59 58 57 59 58 54 52 51 51 54 54 52 58 64 61 58 56 54 51 47
15 14 20 13 9 12 7 11 10 9 4 3 8 15 10 15 38 50 49 56 59 62 59 54 52 58 57 59 62 59 52 49 49 51 47 51 52 52 56 58 59 59 56 54
9 8 22 12 11 12 10 10 8 10 10 8 2 10 11 9 19 16 65 79 75 68 60 53 53 54 57 52 54 61 59 56 53 56 54 53 56 57 49 40 41 41 51 54
16 17 14 10 13 15 17 9 14 8 6 3 3 2 14 3 14 20 47 73 82 81 62 54 49 52 54 54 52 57 62 65 66 65 64 60 59 56 44 36 34 37 43 48
12 8 14 23 7 18 17 14 14 9 6 6 13 11 11 10 19 9 17 41 57 64 60 52 52 54 55 56 57 58 59 61 64 65 69 70 66 61 52 42 43 40 38 37
5 5 3 11 12 6 6 13 4 2 3 10 4 3 18 15 16 13 17 14 17 34 51 55 55 56 57 55 54 56 58 60 63 64 64 64 60 55 51 44 38 41 37 36
18 11 16 9 12 15 11 19 11 12 7 8 3 14 13 13 25 49 48 38 20 28 44 51 54 53 52 52 56 58 57 56 56 58 64 64 54 47 45 40 45 39 37 36
13 8 4 3 8 18 12 11 14 14 5 5 9 12 21 9 20 16 20 27 29 38 49 50 48 47 47 50 49 44 39 33 30 33 41 46 45 48 44 47 45 45 37 34
13 10 2 4 8 6 15 20 7 4 7 8 10 10 12 8 16 13 18 34 31 36 41 42 41 40 41 38 34 32 31 28 23 22 27 35 40 42 42 41 41 40 33 33
11 9 3 4 12 17 8 8 7 10 9 9 2 12 16 24 14 21 31 32 36 41 40 39 38 37 37 36 34 33 31 27 25 26 28 30 34 38 39 40 41 34 31 30
2 10 9 9 4 3 1 13 12 10 12 5 5 16 7 16 13 21 23 34 33 39 40 40 39 39 38 38 36 33 30 29 31 30 31 33 33 33 34 34 31 26 24 23
14 1 7 8 6 3 7 5 8 11 6 14 9 10 9 10 11 8 17 19 28 36 42 44 46 45 43 41 39 35 32 34 35 36 36 35 34 31 30 28 23 22 21 18
20 6 15 22 14 18 11 14 11 11 4 12 29 7 3 6 10 7 4 10 20 37 46 49 49 47 43 41 40 41 44 42 38 37 37 35 34 33 29 26 25 23 21 18
13 13 8 1 10 16 11 15 24 27 58 19 43 29 18 14 13 17 11 14 21 34 46 50 50 48 48 50 51 51 49 46 45 44 42 39 37 34 32 31 28 26 24 20
5 5 8 2 5 6 9 24 41 55 30 50 23 44 13 31 43 22 25 29 38 42 45 49 51 52 57 58 58 56 54 55 52 49 44 41 40 38 37 34 32 30 27 23
20 12 6 15 3 13 12 47 34 33 38 41 37 48 16 12 22 50 56 49 48 42 39 45 51 57 61 64 63 64 62 59 57 52 49 46 45 43 42 41 39 35 30 23
16 18 5 6 7 14 22 15 31 38 32 47 51 20 22 31 47 50 52 58 60 59 61 60 62 66 66 65 65 64 64 64 60 56 54 52 50 49 48 45 40 36 29 23
12 11 6 11 8 13 20 11 12 18 48 32 42 33 28 34 38 65 54 64 72 67 63 63 62 64 65 66 69 69 68 67 64 64 61 57 55 53 50 47 41 35 30 26
7 22 13 5 12 22 5 19 37 14 42 22 42 35 42 33 19 29 46 43 47 53 58 62 66 67 64 64 69 73 74 75 74 71 65 60 57 53 50 45 40 35 31 27
9 6 25 15 12 19 14 11 38 26 13 23 33 47 27 17 38 14 16 32 32 31 42 49 55 61 61 64 69 80 82 83 80 72 68 65 62 59 53 47 43 38 34 32
20 21 15 9 15 32 16 12 22 14 12 9 10 11 23 36 39 45 46 47 50 48 48 49 53 56 59 60 66 79 86 83 77 74 72 70 68 62 56 51 48 44 39 34
15 16 17 24 15 2 31 6 7 5 9 11 7 5 6 8 9 13 17 22 27 28 29 33 40 44 49 53 60 74 83 80 77 77 75 72 68 62 58 53 49 44 38 33
5 4 8 8 2 2 18 6 5 4 6 8 8 8 9 9 12 13 10 13 17 19 22 25 28 36 42 47 55 69 76 77 78 78 77 74 71 66 59 53 47 41 37 27
4 13 12 1 5 11 7 6 5 4 3 1 1 3 4 9 11 10 9 9 10 14 17 22 24 29 35 41 50 59 69 74 77 79 79 77 72 65 61 55 46 39 31 29
8 8 8 6 10 11 10 13 13 14 13 12 9 7 8 11 13 13 16 16 15 14 16 20 26 29 31 38 45 56 67 74 78 81 80 76 71 67 62 54 45 38 32 47
Wind_Direction_850mb
167 129 188 180 177 177 174 174 197 237 187 149 220 251 261 238 221 229 226 223 226 233 239 239 234 230 228 227 228 228 228 228 227 230 229 229 231 237 240 242 242 244 248 252
77 199 209 175 135 131 151 163 193 293 267 157 239 261 251 230 234 226 227 227 229 236 238 240 238 232 231 231 229 227 231 231 230 232 237 238 232 235 238 243 247 248 251 250
162 202 151 162 166 161 172 176 187 205 128 17 353 290 247 245 238 240 240 238 236 237 239 237 235 230 232 232 229 229 231 235 236 240 241 240 242 238 238 241 244 247 250 253
172 191 159 154 193 143 203 205 147 137 124 211 107 275 269 247 252 221 238 237 236 234 236 236 233 232 233 235 232 231 233 236 238 240 240 239 242 243 246 251 250 251 254 256
210 155 140 163 185 156 221 137 143 117 110 113 245 193 266 259 268 235 234 238 236 239 234 230 233 232 232 231 231 233 233 236 235 238 243 244 244 249 257 260 261 256 257 255
181 180 155 181 134 161 148 85 50 62 95 266 213 174 264 205 219 265 244 243 244 240 231 227 227 230 225 225 226 230 235 238 241 242 245 246 246 249 250 253 256 262 263 261
107 168 158 130 97 81 118 108 33 325 279 222 22 276 242 244 246 223 246 302 262 226 219 219 223 222 222 224 228 233 237 242 244 245 245 244 245 243 243 243 249 258 261 252
165 200 163 177 171 158 174 157 153 183 216 222 87 232 241 240 261 259 260 269 267 219 207 211 215 217 220 225 233 240 247 251 250 247 246 244 240 232 232 228 238 247 255 250
149 199 69 142 142 155 188 194 153 108 23 55 219 286 297 239 267 262 243 226 219 203 201 203 207 217 229 236 242 246 248 246 236 229 230 233 224 218 224 231 237 243 247 244
193 122 57 162 125 66 184 154 125 20 137 258 273 269 235 273 242 237 236 222 207 194 195 201 211 220 227 232 234 233 229 226 223 217 213 215 212 215 216 221 232 248 237 241
136 108 185 139 210 157 146 177 72 126 153 177 264 263 220 225 210 209 229 224 211 201 201 206 213 220 222 222 222 224 225 223 219 213 209 208 208 209 217 228 236 228 224 231
133 112 143 172 280 297 24 163 157 174 208 212 168 253 225 224 254 220 241 229 218 213 210 213 217 217 219 221 222 222 221 219 213 206 202 202 206 211 220 230 221 217 220 225
177 249 91 46 331 4 201 196 148 100 85 201 165 251 344 307 288 264 239 228 213 211 211 216 218 218 218 219 219 220 218 213 208 202 200 202 206 209 209 207 203 201 200 197
125 137 169 195 202 136 181 185 188 149 177 207 241 187 338 235 265 275 247 217 219 217 218 222 221 222 222 223 223 218 215 210 207 201 198 198 199 200 201 194 188 185 182 182
132 183 175 197 173 167 175 171 178 197 222 192 251 233 205 237 234 245 248 240 231 227 225 227 229 227 225 224 221 218 215 213 209 207 203 201 201 197 193 192 188 188 185 181
176 209 125 224 109 111 183 203 202 215 214 239 254 268 175 225 231 249 248 248 246 242 236 233 232 232 232 229 226 223 220 215 212 210 208 205 202 198 196 193 189 186 181 179
153 133 106 224 77 85 302 222 214 222 219 230 232 249 201 196 208 225 238 241 234 233 238 239 243 243 237 235 229 225 220 216 214 211 209 208 205 201 195 190 188 185 187 191
150 155 107 129 111 189 248 205 215 219 226 227 246 242 190 216 231 241 235 237 240 249 254 256 257 251 246 238 230 225 220 218 215 213 211 208 203 199 194 191 190 191 194 200
160 147 100 150 201 284 268 179 154 175 248 227 241 245 234 241 249 253 242 244 246 248 252 260 262 262 254 244 232 224 220 219 216 214 211 207 204 200 198 196 195 196 202 204
99 202 178 126 189 229 356 209 185 102 265 204 221 232 230 195 233 258 251 255 260 261 261 260 259 259 253 245 233 225 221 219 218 215 210 207 204 202 202 200 199 200 201 207
137 111 193 179 227 275 227 204 154 177 254 213 231 230 202 194 228 217 248 259 263 258 259 261 259 258 256 246 232 222 221 220 219 213 208 205 203 202 202 202 202 204 205 205
167 167 194 179 213 255 168 123 169 212 210 216 214 219 221 242 252 258 264 267 267 266 259 255 256 258 254 244 232 225 221 219 214 209 207 205 203 202 202 203 203 201 202 203
200 193 182 189 211 193 180 358 237 249 262 218 222 254 286 273 260 256 249 253 265 272 269 258 250 253 250 244 234 228 221 216 210 207 206 204 202 202 202 203 203 201 200 207
258 187 158 109 3 145 191 221 207 195 215 205 210 208 215 245 264 264 275 286 286 286 287 282 268 254 245 238 230 226 222 215 211 208 205 205 204 203 202 201 203 204 203 209
197 137 144 83 122 106 110 170 163 142 150 231 256 298 286 287 289 304 319 309 300 303 304 299 283 265 251 241 231 223 217 216 211 208 207 205 203 203 202 201 200 201 214 235
194 163 176 189 126 119 132 98 98 95 74 48 21 328 324 316 315 318 313 303 298 293 297 296 289 275 259 245 234 225 218 215 213 210 208 207 206 203 200 196 200 213 221 228